Location: Treviso
(45.6669°N, 12.2430°E)
Time: 00:38:35
(UTC+02:00)

ISS - Pass Details

Date: 21 May 2017
Orbit: 402 x 408 km, 51.6° (Epoch: 30 May)

Event Time Altitude Azimuth Distance (km) Brightness Sun altitude
Exits shadow 02:57:15 - 295° (WNW) 1,794 -0.6 -19.6°
Reaches altitude 10° 02:58:08 10° 301° (WNW) 1,469 -1.0 -19.5°
Maximum altitude 03:01:02 27° 2° (N) 811 -1.7 -19.3°
Drops below altitude 10° 03:03:54 10° 63° (ENE) 1,465 -0.2 -19.0°
Sets 03:06:11 0° 76° (ENE) 2,323 0.7 -18.9°
